{"data":{"norad_id":46129,"epoch":"2026-05-24T18:25:54.776640Z","epoch_age_seconds":94333,"freshness":"FRESH","line1":"1 46129U 20057N   26144.76799510  .00086892  00000+0  66394-3 0  9990","line2":"2 46129  53.0432 244.1448 0004301 346.0068  14.0829 15.71461358318819","mean_motion":15.71461358,"eccentricity":0.0004301,"inclination_deg":53.0432,"raan_deg":244.1448,"arg_perigee_deg":346.0068,"mean_anomaly_deg":14.0829,"bstar":0.00066394,"rev_number":31881,"period_min":91.634451758501,"perigee_km":351.8238876591,"apogee_km":357.61549098326,"semimajor_km":6732.8566893212,"source":"CELESTRAK","updated_at":"2026-05-25T13:38:16.466294Z"}}